Powrót do katalogu

ONEWEB-0407

AktywnyŁącznośćPO
NORAD 50487·PAYLOAD·🇬🇧 United Kingdom

Wystrzelony Dec 27, 2021 z Baikonur Cosmodrome

Loading…

Następne Przeloty (najbliższe 24 godziny)

TLE

ŚwieżeSource: CelesTrak SupGP

Epoka: Sep 14, 2026, 19:27 UTC

1 50487C 21132U   26257.81059444 -.00002312  00000+0 -58725-2 0  2575
2 50487  87.9165 317.6468 0001940  93.7129 303.9262 13.18687276    17

Śledź ONEWEB-0407 w czasie rzeczywistym z AllMySat

Download on the App Store